EW4713 Weather Reports


time (UTC)temp
C
wind
direction
speed
KPH
gust
KPH
rain 1hr
cm
rain 24hr
cm
rain mn
cm
humidity
%
barometer
mb
20260831075942 18 121 0.0 3.2 0.05 0.46 0.43 99 1004.0
20260831075441 18 270 1.6 3.2 0.00 0.41 0.41 99 1004.0
20260831074443 18 270 1.6 4.8 0.00 0.41 0.41 99 1003.3
20260831073941 18 337 0.0 6.4 0.00 0.41 0.41 99 1003.3
20260831072941 18 303 3.2 4.8 0.00 0.41 0.41 99 1003.3
20260831072442 18 292 0.0 3.2 0.05 0.41 0.41 99 1003.3
20260831071940 18 320 3.2 4.8 0.41 0.41 0.41 99 1003.3
20260831070441 18 303 0.0 4.8 0.41 0.41 0.41 99 1003.3
20260831065938 18 311 0.0 4.8 0.41 0.41 0.41 99 1003.6
20260831064938 18 236 3.2 9.7 0.41 0.41 0.41 99 1003.3
20260831064440 18 168 0.0 8.0 0.41 0.41 0.41 99 1003.3
20260831063937 18 300 1.6 8.0 0.41 0.41 0.41 99 1003.3
20260831063439 18 270 0.0 8.0 0.41 0.41 0.41 99 1003.3
20260831062937 18 275 3.2 12.9 0.41 0.41 0.41 99 1003.3
20260831062439 18 356 3.2 17.7 0.30 0.30 0.18 99 1002.9
20260831061936 18 334 0.0 17.7 0.00 0.00 0.00 99 1003.6
20260831061437 18 298 4.8 9.7 0.00 0.00 0.00 99 1003.3
20260831060936 18 324 3.2 8.0 0.00 0.00 0.00 99 1002.9
20260831060437 18 236 3.2 8.0 0.00 0.00 0.00 99 1002.6
20260831055431 18 312 9.7 12.9 0.00 0.00 0.00 99 1002.6
20260831054929 18 346 4.8 11.3 0.00 0.00 0.00 99 1003.3
20260831054430 18 296 6.4 12.9 0.00 0.00 0.00 99 1003.3
20260831053929 18 248 3.2 12.9 0.00 0.00 0.00 99 1003.3
20260831053430 18 230 8.0 11.3 0.00 0.00 0.00 99 1003.3
20260831052932 18 283 3.2 14.5 0.00 0.00 0.00 98 1003.3
20260831052434 18 312 6.4 16.1 0.00 0.00 0.00 98 1003.3
20260831051932 18 291 4.8 16.1 0.00 0.00 0.00 98 1003.6
20260831051433 18 348 3.2 11.3 0.00 0.00 0.00 98 1003.3
20260831050931 18 262 9.7 17.7 0.00 0.00 0.00 98 1003.6
20260831050432 18 243 4.8 16.1 0.00 0.00 0.00 98 1003.3
20260831045931 18 323 6.4 16.1 0.00 0.00 0.00 98 1003.3
20260831045433 18 255 4.8 17.7 0.00 0.00 0.00 98 1003.3
20260831043930 18 302 3.2 12.9 0.00 0.00 0.00 98 1004.0
20260831043431 18 228 3.2 19.3 0.00 0.00 0.00 98 1004.0
20260831042930 18 309 0.0 17.7 0.00 0.00 0.00 98 1004.0
20260831042431 18 290 6.4 14.5 0.00 0.00 0.00 98 1004.0
20260831035927 18 219 6.4 14.5 0.00 0.00 0.00 97 1004.4
20260831035429 18 276 9.7 14.5 0.00 0.00 0.00 97 1004.4
20260831034927 18 285 6.4 14.5 0.00 0.00 0.00 97 1004.7
20260831034428 18 243 6.4 16.1 0.00 0.00 0.00 97 1004.7
20260831033927 18 256 8.0 16.1 0.00 0.00 0.00 98 1004.7
20260831033432 18 319 3.2 12.9 0.00 0.00 0.00 98 1004.7
20260831032926 18 291 6.4 12.9 0.00 0.00 0.00 98 1005.1
20260831032426 18 274 3.2 11.3 0.00 0.00 0.00 98 1005.1
20260831031925 18 273 4.8 6.4 0.00 0.00 0.00 98 1005.4
20260831030427 18 258 8.0 14.5 0.00 0.00 0.00 97 1005.1
20260831025924 18 315 3.2 17.7 0.00 0.00 0.00 97 1005.1
20260831025425 18 299 6.4 17.7 0.00 0.00 0.00 97 1005.1
20260831024925 19 297 4.8 17.7 0.00 0.00 0.00 97 1005.1
20260831024426 19 300 4.8 17.7 0.00 0.00 0.00 96 1005.4
20260831023924 19 180 0.0 12.9 0.00 0.00 0.00 96 1005.1
20260831023427 19 237 4.8 8.0 0.00 0.00 0.00 96 1005.4
20260831022929 19 341 3.2 11.3 0.00 0.00 0.00 96 1005.4
20260831022424 19 254 1.6 11.3 0.00 0.00 0.00 95 1005.1
20260831021921 19 259 4.8 19.3 0.00 0.00 0.00 94 1005.1
20260831021424 19 252 8.0 19.3 0.00 0.00 0.00 94 1005.1
20260831020921 20 320 3.2 14.5 0.00 0.00 0.00 93 1005.1
20260831020421 20 304 3.2 20.9 0.00 0.00 0.00 93 1004.7
20260831015921 20 236 3.2 20.9 0.00 0.00 0.00 92 1004.7
20260831015421 20 233 8.0 14.5 0.00 0.00 0.00 92 1004.7
20260831014406 20 339 9.7 14.5 0.00 0.00 0.00 91 1004.7
20260831013401 20 334 8.0 11.3 0.00 0.00 0.00 91 1005.1
20260831012902 20 312 3.2 8.0 0.00 0.00 0.00 91 1005.1
20260831012401 20 297 1.6 8.0 0.00 0.00 0.00 91 1005.1
20260831011900 20 285 3.2 8.0 0.00 0.00 0.00 91 1005.1
20260831011401 20 346 8.0 8.0 0.00 0.00 0.00 91 1004.7
20260831010901 20 242 6.4 8.0 0.00 0.00 0.00 90 1005.1
20260831010401 20 264 1.6 8.0 0.00 0.00 0.00 90 1005.1
20260831005901 20 310 4.8 16.1 0.00 0.00 0.00 90 1005.1
20260831005402 20 258 3.2 16.1 0.00 0.00 0.00 90 1004.7
20260831004901 20 279 3.2 9.7 0.00 0.00 0.00 90 1004.7
20260831004402 20 251 3.2 11.3 0.00 0.00 0.00 90 1004.7
20260831003901 20 300 3.2 11.3 0.00 0.00 0.00 90 1004.4
20260831003401 20 270 3.2 8.0 0.00 0.00 0.00 90 1004.4
20260831002900 20 261 4.8 8.0 0.00 0.00 0.00 90 1004.4
20260831002401 20 294 6.4 16.1 0.00 0.00 0.00 89 1004.4
20260831001900 20 289 1.6 16.1 0.00 0.00 0.00 89 1004.7
20260831000901 20 289 3.2 19.3 0.00 0.00 0.00 89 1004.7
20260831000403 20 283 6.4 14.5 0.00 0.00 0.00 89 1004.7
20260830235901 20 327 3.2 14.5 0.00 0.00 0.00 88 1004.7
20260830235402 20 264 1.6 16.1 0.00 0.00 0.00 89 1004.7
20260830234901 20 275 3.2 16.1 0.00 0.00 0.00 88 1004.4
20260830234403 20 237 3.2 9.7 0.00 0.00 0.00 88 1004.7
20260830233402 20 299 3.2 16.1 0.00 0.00 0.00 88 1005.1
20260830232901 20 275 3.2 16.1 0.00 0.00 0.00 87 1005.1
20260830232401 21 288 6.4 11.3 0.00 0.00 0.00 87 1005.1
20260830231901 20 288 6.4 11.3 0.00 0.00 0.00 87 1005.4
20260830231403 21 291 6.4 14.5 0.00 0.00 0.00 87 1005.4
20260830230901 21 246 6.4 14.5 0.00 0.00 0.00 86 1005.1
20260830225900 21 180 0.0 8.0 0.00 0.00 0.00 87 1005.4
20260830225401 21 235 4.8 8.0 0.00 0.00 0.00 87 1005.4
20260830224903 21 274 3.2 12.9 0.00 0.00 0.00 87 1005.4
20260830224401 21 270 4.8 17.7 0.00 0.00 0.00 86 1005.4
20260830223901 21 334 4.8 17.7 0.00 0.00 0.00 87 1005.1
20260830223400 21 282 3.2 12.9 0.00 0.00 0.00 87 1005.1
20260830222901 20 292 3.2 8.0 0.00 0.00 0.00 88 1005.1
20260830221903 20 291 1.6 9.7 0.00 0.00 0.00 89 1005.7
20260830220904 20 297 6.4 8.0 0.00 0.00 0.00 89 1005.7
20260830220402 20 286 3.2 19.3 0.00 0.00 0.00 89 1005.7
20260830215902 20 270 1.6 19.3 0.00 0.00 0.00 89 1006.5
20260830215404 20 293 9.7 12.9 0.00 0.00 0.00 89 1006.1
20260830214902 20 248 3.2 9.7 0.00 0.00 0.00 90 1006.1
20260830214404 20 266 3.2 9.7 0.00 0.00 0.00 90 1006.1
20260830213903 20 262 3.2 6.4 0.00 0.00 0.00 90 1006.5
20260830213402 20 322 3.2 8.0 0.00 0.00 0.00 90 1006.5
20260830212902 20 270 1.6 16.1 0.00 0.00 0.00 91 1006.9
20260830211903 20 323 3.2 11.3 0.00 0.00 0.00 91 1006.9
20260830211403 20 264 1.6 11.3 0.00 0.00 0.00 91 1006.9
20260830210403 20 264 1.6 11.3 0.00 0.00 0.00 92 1007.2
20260830205905 20 326 4.8 6.4 0.00 0.00 0.00 92 1006.9
20260830205404 20 305 4.8 9.7 0.00 0.00 0.00 92 1006.9
20260830204902 19 293 8.0 9.7 0.00 0.00 0.00 92 1006.9
20260830204401 19 255 1.6 9.7 0.00 0.00 0.00 92 1007.2
20260830203401 20 237 0.0 8.0 0.00 0.00 0.00 93 1007.2
20260830202901 19 270 3.2 9.7 0.00 0.00 0.00 93 1007.2
20260830202401 19 260 3.2 12.9 0.00 0.00 0.00 93 1006.9
20260830201900 19 349 3.2 12.9 0.00 0.00 0.00 93 1007.2
20260830200402 19 286 6.4 11.3 0.00 0.00 0.00 93 1007.5
20260830195859 20 239 3.2 16.1 0.00 0.00 0.00 93 1007.2
20260830195358 20 279 6.4 16.1 0.00 0.00 0.00 92 1007.2
20260830194859 19 184 3.2 9.7 0.00 0.00 0.00 93 1007.5
20260830194358 19 234 4.8 11.3 0.00 0.00 0.00 93 1007.5
20260830193857 19 249 6.4 11.3 0.00 0.00 0.00 92 1007.5
20260830193357 20 293 4.8 9.7 0.00 0.00 0.00 92 1007.5
20260830192858 20 357 0.0 16.1 0.00 0.00 0.00 93 1007.2
20260830192357 20 251 0.0 16.1 0.00 0.00 0.00 93 1006.9
20260830191856 19 288 4.8 12.9 0.00 0.00 0.00 92 1007.5
20260830190857 19 331 3.2 11.3 0.00 0.00 0.00 93 1007.2
20260830190355 19 318 4.8 16.1 0.00 0.00 0.00 93 1007.5
20260830184854 19 286 3.2 9.7 0.00 0.00 0.00 94 1007.2
20260830184355 19 282 4.8 12.9 0.00 0.00 0.00 94 1007.2
20260830183854 19 290 4.8 12.9 0.00 0.00 0.00 94 1007.2
20260830183354 19 250 3.2 11.3 0.00 0.00 0.00 94 1007.2
20260830182855 19 244 4.8 16.1 0.00 0.00 0.00 94 1007.2
20260830182353 19 228 6.4 16.1 0.00 0.00 0.00 94 1007.2
20260830181853 19 277 3.2 11.3 0.00 0.00 0.00 94 1006.9
20260830180852 19 292 3.2 9.7 0.00 0.00 0.00 94 1007.2
20260830180352 19 236 0.0 8.0 0.00 0.00 0.00 95 1006.9
20260830174851 19 294 6.4 8.0 0.00 0.00 0.00 94 1007.2
20260830174352 19 292 0.0 14.5 0.00 0.00 0.00 94 1007.2
20260830173850 19 13 4.8 14.5 0.00 0.00 0.00 94 1006.9
20260830173351 19 278 6.4 11.3 0.00 0.00 0.00 95 1007.2
20260830172852 19 259 3.2 11.3 0.00 0.00 0.00 95 1007.2
20260830172349 19 225 9.7 12.9 0.00 0.00 0.00 96 1007.2
20260830171849 18 291 4.8 8.0 0.00 0.00 0.00 96 1007.2
20260830171350 18 222 4.8 11.3 0.00 0.00 0.00 96 1007.2
20260830170348 18 311 6.4 9.7 0.00 0.00 0.00 97 1007.2
20260830165850 18 263 4.8 9.7 0.00 0.00 0.00 97 1007.2
20260830165348 18 0 1.6 9.7 0.00 0.00 0.00 97 1007.2
20260830164847 18 348 0.0 8.0 0.00 0.00 0.00 97 1007.5
20260830164348 18 280 0.0 8.0 0.00 0.00 0.00 97 1007.2
20260830163847 18 303 3.2 6.4 0.00 0.00 0.00 97 1007.2
20260830163347 18 294 3.2 9.7 0.00 0.00 0.00 97 1006.9
20260830162848 18 256 4.8 9.7 0.00 0.00 0.00 97 1007.2
20260830161846 18 324 3.2 11.3 0.00 0.00 0.00 97 1007.2
20260830161347 18 248 0.0 11.3 0.00 0.00 0.00 97 1007.5
20260830160345 18 337 4.8 8.0 0.00 0.00 0.00 97 1007.5
20260830155845 18 253 3.2 9.7 0.00 0.00 0.00 96 1007.5
20260830155344 18 334 4.8 9.7 0.00 0.00 0.00 96 1007.5
20260830154844 18 194 3.2 9.7 0.00 0.00 0.00 96 1007.5
20260830154345 18 291 1.6 14.5 0.00 0.00 0.00 96 1007.5
20260830153843 18 270 6.4 14.5 0.00 0.00 0.00 96 1007.5
20260830153343 18 270 1.6 11.3 0.00 0.00 0.00 96 1007.5
20260830152342 18 243 0.0 11.3 0.00 0.00 0.00 97 1007.5
20260830151842 18 263 0.0 11.3 0.00 0.00 0.00 97 1007.9
20260830151342 18 7 1.6 12.9 0.00 0.00 0.00 97 1007.5
20260830150842 18 285 4.8 12.9 0.00 0.00 0.00 98 1007.5
20260830145843 18 0 0.0 8.0 0.00 0.00 0.00 98 1007.9
20260830145340 18 328 3.2 4.8 0.00 0.00 0.00 98 1007.9
20260830144840 18 276 1.6 4.8 0.00 0.00 0.00 98 1007.9
20260830144341 18 291 0.0 9.7 0.00 0.00 0.00 98 1007.5
20260830143840 18 212 0.0 9.7 0.00 0.00 0.00 98 1007.9
20260830143339 18 258 3.2 8.0 0.00 0.00 0.00 98 1007.9
20260830142840 18 342 0.0 9.7 0.00 0.00 0.00 98 1007.5
20260830141838 17 270 0.0 6.4 0.00 0.00 0.00 98 1007.5
20260830140829 17 225 0.0 8.0 0.00 0.00 0.00 98 1007.5
20260830135831 17 308 14.5 17.7 0.00 0.00 0.00 99 1007.5
20260830135329 17 283 1.6 11.3 0.00 0.00 0.00 99 1007.2
20260830134828 17 355 3.2 11.3 0.00 0.00 0.00 99 1007.5
20260830134331 17 283 4.8 9.7 0.00 0.00 0.00 99 1007.5
20260830133829 17 340 1.6 9.7 0.00 0.00 0.00 99 1007.5
20260830132831 17 286 3.2 6.4 0.00 0.00 0.00 99 1007.2
20260830132329 17 294 3.2 6.4 0.00 0.00 0.00 99 1007.5
20260830131828 17 276 0.0 6.4 0.00 0.00 0.00 99 1007.2
20260830131331 17 303 3.2 6.4 0.00 0.00 0.00 99 1007.5
20260830130830 17 294 1.6 6.4 0.00 0.00 0.00 99 1007.5
20260830130329 17 270 1.6 6.4 0.00 0.00 0.00 99 1007.5
20260830125328 17 297 0.0 11.3 0.00 0.00 0.00 99 1007.5
20260830124829 17 355 1.6 8.0 0.00 0.00 0.00 99 1007.9
20260830124334 17 0 0.0 8.0 0.00 0.00 0.00 99 1007.5
20260830123832 17 254 3.2 6.4 0.00 0.00 0.00 99 1007.5
20260830122832 17 270 0.0 4.8 0.00 0.00 0.00 99 1007.2
20260830121801 17 294 0.0 6.4 0.00 0.00 0.00 98 1007.5
20260830121302 18 337 0.0 9.7 0.00 0.00 0.00 98 1007.5
20260830120801 18 261 0.0 9.7 0.00 0.00 0.00 98 1007.5
20260830120314 18 260 9.7 9.7 0.00 0.00 0.00 98 1007.5
20260830115802 18 291 0.0 3.2 0.00 0.00 0.00 97 1007.5
20260830115301 18 279 0.0 4.8 0.00 0.00 0.00 97 1007.5
20260830114801 18 353 0.0 6.4 0.00 0.00 0.00 97 1007.9
20260830114303 18 337 3.2 6.4 0.00 0.00 0.00 97 1007.5
20260830113801 18 0 3.2 6.4 0.00 0.00 0.00 97 1007.5
20260830113301 18 279 0.0 4.8 0.00 0.00 0.00 97 1007.5
20260830112802 18 0 0.0 4.8 0.00 0.00 0.00 97 1007.5
20260830111801 18 10 3.2 6.4 0.00 0.00 0.00 97 1007.5
20260830110801 18 285 0.0 4.8 0.00 0.00 0.00 97 1007.5
20260830110301 18 270 0.0 6.4 0.00 0.00 0.00 97 1007.5
20260830105811 18 270 0.0 9.7 0.00 0.00 0.00 97 1007.2
20260830104802 18 297 0.0 14.5 0.00 0.00 0.00 97 1007.2
20260830104303 18 299 4.8 14.5 0.00 0.00 0.00 97 1007.2
20260830103801 18 345 0.0 6.4 0.00 0.00 0.00 97 1006.9
20260830102802 18 0 1.6 6.4 0.00 0.00 0.00 97 1006.9
20260830102302 18 336 3.2 6.4 0.00 0.00 0.00 97 1007.2
20260830101801 18 270 0.0 6.4 0.00 0.00 0.00 97 1007.2
20260830101302 18 240 0.0 6.4 0.00 0.00 0.00 98 1007.2
20260830100800 18 236 0.0 8.0 0.00 0.00 0.00 98 1007.2
20260830100306 18 287 3.2 8.0 0.00 0.00 0.00 98 1007.5
20260830095802 18 340 1.6 3.2 0.00 0.00 0.00 98 1007.2
20260830095305 18 270 3.2 3.2 0.00 0.00 0.00 98 1007.5
20260830094801 18 283 0.0 3.2 0.00 0.00 0.00 98 1007.5
20260830093801 18 283 0.0 4.8 0.00 0.00 0.00 98 1007.5
20260830093301 18 294 0.0 4.8 0.00 0.00 0.00 98 1007.9
20260830092802 18 263 0.0 8.0 0.00 0.00 0.00 98 1007.5
20260830092301 18 286 1.6 8.0 0.00 0.00 0.00 98 1007.2
20260830091801 18 255 3.2 4.8 0.00 0.00 0.00 98 1007.2
20260830091302 18 278 0.0 4.8 0.00 0.00 0.00 98 1007.2
20260830090301 18 0 0.0 6.4 0.00 0.00 0.00 98 1007.2
20260830085802 18 7 0.0 6.4 0.00 0.00 0.00 97 1007.2
20260830085301 18 276 0.0 4.8 0.00 0.00 0.00 98 1007.2
20260830084801 18 290 0.0 4.8 0.00 0.00 0.00 98 1007.2
20260830084303 18 285 0.0 3.2 0.00 0.00 0.00 98 1006.9
20260830083801 18 291 0.0 4.8 0.00 0.00 0.00 98 1006.9
20260830083300 18 240 0.0 4.8 0.00 0.00 0.00 98 1007.2
20260830082803 18 0 0.0 3.2 0.00 0.00 0.00 98 1007.2
20260830082301 18 270 0.0 3.2 0.00 0.00 0.00 98 1007.2
20260830081801 18 286 0.0 1.6 0.00 0.00 0.00 98 1007.2
20260830080801 18 291 0.0 3.2 0.00 0.00 0.00 98 1006.9